Racecast

Carrollton Orthopedic Invitational

Carrollton High School · 5000m · Boys · Compiled · GA

794 runners from 6 divisions

These divisions were run separately. This is how their times compare, not how they finished — the places and scores below were never contested.

View full meet →

Team scores

Place Team Points 12345 67
1 Marietta (GA) 92 5 12 24 25 26 27 37
2 Leon (FL) 100 1 9 18 28 44 45 74
3 St Pius X Catholic (GA) 164 14 17 35 48 50 52 83
4 Peachtree Ridge (GA) 175 6 16 36 55 62 84 89
5 Mill Creek (GA) 180 7 19 33 46 75 88 102
6 Holy Trinity Episcopal (FL) 186 2 3 29 67 85 123 179
7 Auburn (AL) 208 20 39 40 43 66 104 134
8 West Forsyth (GA) 330 4 8 59 126 133 158 194
9 Lakeside DeKalb (GA) 371 13 64 77 107 110 180 205
10 Creekview (GA) 436 21 76 81 92 166 185 191
11 Parkview (GA) 437 60 71 79 106 121 128 136
12 Lambert (GA) 442 10 94 103 108 127 130 138
13 Clarkston (GA) 497 38 51 96 140 172 219 319
14 Mandarin (FL) 515 31 54 113 114 203 236 237
15 Starr's Mill (GA) 529 47 86 91 150 155 207 242
16 Woodstock (GA) 576 22 93 129 154 178 184 206
17 Woodward Academy (GA) 577 23 53 100 137 264 269 309
18 Grayson (GA) 581 42 105 116 149 169 186 213
19 Northview (GA) 598 57 69 124 160 188 197 230
20 North Cobb Comp (GA) 598 90 99 117 122 170 208 214
21 Flagler Palm Coast (FL) 601 65 73 148 151 164 201 202
22 Westminster (GA) 623 87 120 132 141 143 147 212
23 Lowndes (GA) 643 68 118 135 157 165 224 238
24 Mountain View (GA) 665 41 72 173 175 204 221 223
25 Flowery Branch (GA) 665 30 97 142 153 243 261 265
26 Pope (GA) 678 98 112 131 139 198 217 226
27 Hebron Christian Academy (GA) 686 56 61 181 189 199 229 291
28 Oconee County (GA) 702 32 95 161 183 231 252 255
29 Harrison (GA) 729 63 146 156 177 187 211 216
30 Greenbrier (GA) 768 49 101 163 220 235 241 250
31 Carrollton (GA) 772 82 115 167 174 234 259 281
32 Allatoona (GA) 782 15 58 232 233 244 248 282
33 Pace Academy (GA) 817 78 152 176 196 215 301 302
34 Union Grove (GA) 861 125 145 171 193 227 258 294
35 Cartersville (GA) 969 119 144 182 253 271 288 311
36 The Lovett (GA) 1020 159 168 218 228 247 275 277
37 Hewitt-Trussville (AL) 1089 111 195 245 266 272 273 278
38 Northside (Columbus) (GA) 1127 109 210 262 270 276 308 338
39 Darlington (GA) 1130 34 192 295 296 313 322 332
40 Loganville (GA) 1160 80 246 267 283 284 297 299
41 Landmark Christian (GA) 1204 162 200 260 290 292
42 Providence Christian (GA) 1246 209 249 257 263 268 303 357
43 Shaw (GA) 1293 70 251 320 321 331 363
44 LaGrange (GA) 1391 11 333 341 344 362
45 Newnan (GA) 1393 239 240 293 306 315 316 327
46 Central (Carroll County) (GA) 1423 256 274 279 304 310 317 324
47 Mt De Sales (GA) 1448 190 254 323 339 342 345 353
48 Lithia Springs (GA) 1461 225 285 286 330 335 343 346
49 South Paulding (GA) 1479 280 289 298 300 312 314 318
50 Prince Avenue Christian (GA) 1558 222 307 328 347 354 365
51 Mt Paran Christian (GA) 1612 287 326 329 334 336 351 352
52 Bremen (GA) 1656 305 325 337 340 349 350 355
53 Heard County (GA) 1781 348 356 358 359 360 361 364

Not scored, fewer than five finishers: Temple (4), Mt. Zion (Carroll) (1)

Rating scale ?

Results

Place Athlete Grade School Time Rating Points Actual race
1 Sukhi Khosla 12 Leon (FL) 1 15:53.4 136.7 1 1
2 Trevor Kattenberg 10 Holy Trinity Episcopal (FL) 1 16:42.0 130.2 2 2
3 Andrew Cacciatore 12 Holy Trinity Episcopal (FL) 2 16:42.2 130.1 3 3
4 John Green 11 West Forsyth (GA) 1 16:47.8 129.4 4 4
5 Khayvonn Benson 11 Marietta (OH) 1 16:52.0 128.9 5 5
6 Isaac Penman 12 Peachtree Ridge (GA) 1 16:52.9 128.8 6 6
7 Sam Costa 11 Mill Creek (GA) 1 16:53.4 128.7 7 7
8 Brian Skoglind 12 West Forsyth (GA) 2 16:54.2 128.6 8 8
9 Hunter Scott 12 Leon (FL) 2 16:55.4 128.5 9 9
10 Jonathan Schwind 11 Lambert (GA) 1 16:55.5 128.5 10 10
11 Sam Bowie 11 LaGrange (GA) 1 16:56.5 128.3 11 1
12 Ben Patterson 10 Marietta (OH) 2 16:58.2 128.1 12 11
13 Davis Stockwell 11 Lakeside DeKalb (GA) 1 17:00.4 127.9 13 12
14 Stephen Martinez 12 St Pius X Catholic (GA) 1 17:00.6 127.8 14 13
15 Colton Page 10 Allatoona (GA) 1 17:01.5 127.7 15 2
16 Nate Reichard 11 Peachtree Ridge (GA) 2 17:04.9 127.3 16 14
17 Nik Calia 12 St Pius X Catholic (GA) 2 17:05.4 127.2 17 15
18 Kyle Buchholz 12 Leon (FL) 3 17:05.8 127.2 18 16
19 Noah Hollis 11 Mill Creek (GA) 2 17:07.0 127.1 19 17
20 Paul Barlow 11 Auburn (AL) 1 17:09.8 126.7 20 18
21 Brennan Garriques 12 Creekview (GA) 1 17:09.9 126.7 21 3
22 Owen Bailey 12 Woodstock (GA) 1 17:11.6 126.5 22 19
23 Alex Murfee 12 Woodward Academy (GA) 1 17:12.9 126.3 23 20
24 Colton Atkinson 12 Marietta (OH) 3 17:13.5 126.3 24 21
25 David Savic 11 Marietta (OH) 4 17:14.0 126.2 25 22
26 Hayden Tullos 10 Marietta (OH) 5 17:16.5 125.9 26 23
27 Carlos Torres 12 Marietta (OH) 6 17:16.7 125.9 27 24
28 Adam Wallenfelsz 11 Leon (FL) 4 17:17.9 125.8 28 25
29 Egan Kattenberg 10 Holy Trinity Episcopal (FL) 3 17:18.4 125.7 29 26
30 Jake Shewbert 11 Flowery Branch (GA) 1 17:18.8 125.6 30 27
31 Trenton Liberty 11 Mandarin (FL) 1 17:19.0 125.6 31 28
32 Michael Hans 12 Oconee County (GA) 1 17:21.6 125.3 32 29
33 Gavin Childers 11 Mill Creek (GA) 3 17:22.2 125.2 33 30
34 Spencer Fields 12 Darlington (WI) 1 17:22.8 125.2 34 31
35 Frank Crippen 10 St Pius X Catholic (GA) 3 17:23.0 125.1 35 1
36 Pedro Solares 11 Peachtree Ridge (GA) 3 17:23.4 125.1 36 32
37 Jack Henderson 12 Marietta (OH) 7 17:24.8 124.9 37 33
38 Abbas Abbkar 11 Clarkston (MI) 1 17:25.9 124.8 38 34
39 Nate Pudner 10 Auburn (AL) 2 17:25.9 124.8 39 35
40 Fernando Lincoln 12 Auburn (AL) 3 17:26.6 124.7 40 36
41 Tyler Barber 11 Mountain View (CA) 1 17:26.6 124.7 41 1
42 Jonathon Ernst 12 Grayson (GA) 1 17:29.6 124.4 42 37
43 Jack Rogers 10 Auburn (AL) 4 17:33.1 124.0 43 38
44 Matthew Cashin 10 Leon (FL) 5 17:33.3 123.9 44 39
45 Maxx Marshall 12 Leon (FL) 6 17:34.3 123.8 45 40
46 Jordan Ashwood 10 Mill Creek (GA) 4 17:35.6 123.7 46 41
47 Joshua Warren 12 Starr's Mill (GA) 1 17:36.1 123.6 47 42
48 Jacob Ressler 10 St Pius X Catholic (GA) 4 17:36.7 123.6 48 43
49 Logan Hughes 12 Greenbrier (GA) 1 17:39.3 123.3 49 44
50 George Meyer 11 St Pius X Catholic (GA) 5 17:39.3 123.3 50 45
51 Gidey Sahlu 12 Clarkston (MI) 2 17:39.5 123.2 51 46
52 Ryan Kelly 12 St Pius X Catholic (GA) 6 17:39.9 123.2 52 47
53 Collin Silliman 12 Woodward Academy (GA) 2 17:40.1 123.2 53 48
54 Sem Sultanov 11 Mandarin (FL) 2 17:42.3 122.9 54 49
55 Teja Gummadi 11 Peachtree Ridge (GA) 4 17:42.5 122.9 55 50
56 Colson Hagan 12 Hebron Christian Academy (GA) 1 17:43.3 122.8 56 1
57 Tim O'Connell 12 Marietta (OH) 8 17:44.2 122.7 51
58 Adam Burkley 11 Northview (GA) 1 17:45.3 122.6 57 52
59 Kevin Olsen 12 Allatoona (GA) 2 17:45.7 122.5 58 4
60 Daniel Sexton 12 West Forsyth (GA) 3 17:46.1 122.5 59 53
61 Luis Herrera 12 Parkview (GA) 1 17:47.4 122.3 60 54
62 Trent Johnson 12 Hebron Christian Academy (GA) 2 17:47.5 122.3 61 2
63 Jack Bradley 11 Peachtree Ridge (GA) 5 17:47.7 122.3 62 55
64 Grayson Rolf 10 Harrison (GA) 1 17:49.5 122.1 63 56
65 Andrew Kent 11 Lakeside DeKalb (GA) 2 17:49.7 122.1 64 57
66 Markell Peck 12 Flagler Palm Coast (FL) 1 17:51.0 121.9 65 58
67 Seth Glidewell 12 Auburn (AL) 5 17:53.3 121.7 66 59
68 Michael Wilson 10 Holy Trinity Episcopal (FL) 4 17:53.8 121.6 67 60
69 Chance Roe 11 Lowndes (GA) 1 17:55.8 121.4 68 2
70 Cole Matthews 11 Northview (GA) 2 17:56.8 121.3 69 61
71 Hakeem Mustafaa 12 Shaw (GA) 1 17:57.2 121.3 70 62
72 Kumail Kazmi 12 Parkview (GA) 2 17:58.5 121.1 71 63
73 Bobby Tucker 10 Mountain View (CA) 2 17:58.6 121.1 72 3
74 Justin Pacifico 11 Flagler Palm Coast (FL) 2 17:59.4 121.0 73 64
75 William Luca 12 Leon (FL) 7 18:01.0 120.8 74 65
76 Steven Young 12 Mill Creek (GA) 5 18:01.9 120.7 75 66
77 Grant Slater 11 Creekview (GA) 2 18:02.9 120.6 76 5
78 Tyler Breeden 12 Lakeside DeKalb (GA) 3 18:04.8 120.4 77 67
79 Jack Douglass 9 Pace Academy (GA) 1 18:05.6 120.3 78 6
80 Jackson Wise 12 Parkview (GA) 3 18:05.7 120.3 79 68
81 Austin Walden 10 Loganville (GA) 1 18:05.9 120.3 80 7
82 Nick Turano 11 Creekview (GA) 3 18:08.1 120.1 81 8
83 Eli Payne 12 Carrollton (GA) 1 18:08.1 120.1 82 9
84 Patrick Grace 12 St Pius X Catholic (GA) 7 18:08.1 120.1 83 69
85 Kyle Green 11 Peachtree Ridge (GA) 6 18:08.4 120.0 84 70
86 Jordan Person 12 Marietta (OH) 9 18:10.0 119.9 71
87 John Cacciatore 10 Holy Trinity Episcopal (FL) 5 18:10.4 119.8 85 72
88 Alex Casado 12 Starr's Mill (GA) 2 18:10.4 119.8 86 73
89 Clare Draper 11 Westminster (GA) 1 18:10.7 119.8 87 3
90 Eric O'Hara 10 Mill Creek (GA) 6 18:11.0 119.7 88 74
91 Michael Armstrong 12 Peachtree Ridge (GA) 7 18:11.6 119.7 89 75
92 Stephan Gardener 11 North Cobb Comp (GA) 1 18:12.6 119.6 90 76
93 Joshua Tysor 10 Starr's Mill (GA) 3 18:12.8 119.6 91 77
94 Zac Cantrell 9 Creekview (GA) 4 18:13.0 119.5 92 10
95 Corey Champion 11 Woodstock (GA) 2 18:13.1 119.5 93 78
96 Tyler Fox 9 Lambert (GA) 2 18:13.2 119.5 94 79
97 Isaac Krumm 11 Oconee County (GA) 2 18:13.6 119.5 95 80
98 Suheib Mohamed 10 Clarkston (MI) 3 18:14.3 119.4 96 81
99 Grant O'Callaghan 11 Flowery Branch (GA) 2 18:15.2 119.3 97 82
100 Andrew Jackson 11 Pope (GA) 1 18:15.4 119.3 98 4
101 Caleb Griffin 11 North Cobb Comp (GA) 2 18:15.5 119.3 99 83
102 Brennan Silliman 10 Woodward Academy (GA) 3 18:15.8 119.2 100 84
103 Mack Hathaway 12 St Pius X Catholic (GA) 8 18:16.4 119.2 85
104 LaQuentin Brown 11 Greenbrier (GA) 2 18:16.5 119.2 101 86
105 Delaney Moore 10 Mill Creek (GA) 7 18:17.2 119.1 102 87
106 Hank Grogan 12 Lambert (GA) 3 18:17.5 119.1 103 88
107 Joshua Escoe 10 Auburn (AL) 6 18:18.6 118.9 104 89
108 Joseph Gunn 11 Grayson (GA) 2 18:19.4 118.8 105 90
109 Danny Moore 11 Leon (FL) 8 18:19.7 118.8 91
110 Kyle Fields 12 Parkview (GA) 4 18:20.0 118.8 106 92
111 Ethan LoCicero 12 Mill Creek (GA) 8 18:20.6 118.7 93
112 Spencer Mull 11 Peachtree Ridge (GA) 8 18:20.9 118.7 94
113 Weston Warncke 12 Lakeside DeKalb (GA) 4 18:20.9 118.7 107 95
114 Michael House 12 Lambert (GA) 4 18:21.5 118.6 108 96
115 Austin Kidd 11 Northside (Columbus) (GA) 1 18:21.9 118.6 109 11
116 Dan Nelson 12 Lakeside DeKalb (GA) 5 18:23.3 118.4 110 97
117 Brian Longobardi 11 Peachtree Ridge (GA) 9 18:24.8 118.3 98
118 John Ngaruiya 10 Hewitt-Trussville (AL) 1 18:24.9 118.3 111 5
119 Dalton Rogers 11 Pope (GA) 2 18:25.4 118.2 112 6
120 Jayson Sutton 11 Peachtree Ridge (GA) 10 18:25.6 118.2 1
121 Daniel Grosch 10 St Pius X Catholic (GA) 9 18:25.9 118.2 99
122 Alex Haggard 9 Peachtree Ridge (GA) 11 18:26.0 118.2 2
123 Michael Cassette 11 Mandarin (FL) 3 18:26.2 118.1 113 100
124 Alex Sutton 12 Peachtree Ridge (GA) 12 18:26.3 118.1 101
125 Jordan Webster 12 Mandarin (FL) 4 18:26.3 118.1 114 102
126 Will Gordy 12 Carrollton (GA) 2 18:26.4 118.1 115 12
127 Connor Stepps 12 Grayson (GA) 3 18:26.4 118.1 116 103
128 Adam Costello 12 North Cobb Comp (GA) 3 18:26.7 118.1 117 104
129 Steven Velazquez 10 Mill Creek (GA) 9 18:27.7 118.0 7
130 Andrew Elam 11 Lowndes (GA) 2 18:28.1 117.9 118 8
131 Haden Boone 10 Cartersville (GA) 1 18:28.8 117.9 119 13
132 Graham Huff 12 Westminster (GA) 2 18:28.8 117.9 120 4
133 Tom Buff 11 Parkview (GA) 5 18:28.9 117.8 121 105
134 Anthony Graham 9 North Cobb Comp (GA) 4 18:29.5 117.8 122 106
135 Bryce-Austin Wahy 10 Holy Trinity Episcopal (FL) 6 18:30.5 117.7 123 107
136 Bryce Meyer 10 Northview (GA) 3 18:30.6 117.7 124 108
137 Matt Seitz 10 Union Grove (GA) 1 18:31.9 117.5 125 14
138 Matt Bissett 11 West Forsyth (GA) 4 18:32.0 117.5 126 109
139 Byron Grogan 10 Lambert (GA) 5 18:32.7 117.5 127 110
140 Jeremy Lightner 10 Parkview (GA) 6 18:32.7 117.5 128 111
141 Kyle Pawlowski 11 Woodstock (GA) 3 18:32.8 117.4 129 112
142 Christopher Sharp 12 Lambert (GA) 6 18:33.0 117.4 130 113
143 Jacob Brenneman 9 Pope (GA) 3 18:34.3 117.3 131 9
144 Ethan Roback 11 Westminster (GA) 3 18:36.2 117.1 132 5
145 Tristan Harding 12 West Forsyth (GA) 5 18:36.4 117.1 133 114
146 Hayden Anabtawi 11 Auburn (AL) 7 18:37.2 117.0 134 115
147 Dylan Rogers 10 Lowndes (GA) 3 18:37.5 117.0 135 10
148 Christian Corsello 9 Parkview (GA) 7 18:38.1 116.9 136 116
149 Simon Willis 12 Woodward Academy (GA) 4 18:38.2 116.9 137 117
150 Brian Houghton 10 St Pius X Catholic (GA) 10 18:39.4 116.8 15
151 Jacob Merrill 10 Lambert (GA) 7 18:40.9 116.6 138 118
152 Grant Macneil 12 Pope (GA) 4 18:42.1 116.5 139 11
153 Awet Fitwi 9 Clarkston (MI) 4 18:42.2 116.5 140 119
154 Jack Powers 10 Westminster (GA) 4 18:42.5 116.4 141 6
155 Trevor Purvis 12 Flowery Branch (GA) 3 18:43.0 116.4 142 120
156 Ruben Roy 11 Westminster (GA) 5 18:43.0 116.4 143 7
157 Robby Earick 10 Cartersville (GA) 2 18:43.0 116.4 144 16
158 Ephraim Green 12 Union Grove (GA) 2 18:44.6 116.2 145 17
159 Bradley Schramm 11 Harrison (GA) 2 18:44.6 116.2 146 121
160 Tommy O'Neal 11 Westminster (GA) 6 18:44.9 116.2 147 8
161 Jonathan Ling 11 Flagler Palm Coast (FL) 3 18:45.0 116.2 148 122
162 Pierce Mercier 12 Grayson (GA) 4 18:45.4 116.2 149 123
163 Cole Hray 11 Mill Creek (GA) 10 18:45.9 116.1 124
164 Nicholas Bryant 11 Starr's Mill (GA) 4 18:46.4 116.0 150 125
165 Spencer Mellow 12 Flagler Palm Coast (FL) 4 18:46.5 116.0 151 126
166 Colby Adams 11 Peachtree Ridge (GA) 13 18:46.8 116.0 3
167 Mark Grenader 12 Pace Academy (GA) 2 18:48.6 115.8 152 18
168 Shawn Olmstead 11 Flowery Branch (GA) 4 18:48.7 115.8 153 127
169 Josiah Jaqua 10 Woodstock (GA) 4 18:49.8 115.7 154 128
170 Reed Livingston 11 Starr's Mill (GA) 5 18:50.2 115.7 155 129
171 Evan Brock 11 Harrison (GA) 3 18:50.8 115.6 156 130
172 Will Smith 11 Lowndes (GA) 4 18:51.3 115.6 157 12
173 Will Harper 11 West Forsyth (GA) 6 18:51.9 115.5 158 131
174 Everett Smulders 10 The Lovett (GA) 1 18:52.7 115.4 159 14
175 Aditiya Patibandla 11 Northview (GA) 4 18:52.9 115.4 160 132
176 Jake Hadden 10 Oconee County (GA) 3 18:53.3 115.4 161 133
177 James Dodson 11 Leon (FL) 9 18:54.1 115.3 134
178 Nathan Dravis 11 Peachtree Ridge (GA) 14 18:54.6 115.2 4
179 Seth Cruver 8 Landmark Christian (GA) 1 18:55.3 133.4 162 135
180 Ryan Levy 10 Peachtree Ridge (GA) 15 18:56.0 115.1 5
181 Jonathan Vernon 11 Greenbrier (GA) 3 18:56.7 115.0 163 136
182 Hayden Ore 11 Flagler Palm Coast (FL) 5 18:57.9 114.9 164 137
183 Elijah Boyd 9 Lowndes (GA) 5 18:58.3 114.9 165 15
184 Ryan Camp 11 Creekview (GA) 5 18:58.4 114.9 166 19
185 Donald Sener 9 Carrollton (GA) 3 18:58.6 114.8 167 20
186 Payne Norton 10 Auburn (AL) 8 18:58.6 114.8 138
187 Mac Major 12 The Lovett (GA) 2 18:58.9 114.8 168 16
188 Ty Spears 12 Grayson (GA) 5 18:59.5 114.7 169 139
189 Zane Rimmer 12 Mill Creek (GA) 11 19:00.2 114.7 140
190 Ricky Ozawa 12 North Cobb Comp (GA) 5 19:00.2 114.7 170 141
191 Brandon Holmes 12 Union Grove (GA) 3 19:00.9 114.6 171 21
192 Bineyam Tumbo 10 Clarkston (MI) 5 19:01.4 114.6 172 142
193 Tyler Harkins 10 Mountain View (CA) 3 19:01.5 114.5 173 17
194 Kyle Vargas 11 Lambert (GA) 8 19:01.7 114.5 143
195 Samuel Campbell 11 Carrollton (GA) 4 19:03.8 114.3 174 22
196 Raine Harkins 11 Mountain View (CA) 4 19:04.5 114.2 175 18
197 John Fitzgerald 12 Marietta (OH) 10 19:04.8 114.2 6
198 Max Irvine 10 Pace Academy (GA) 3 19:05.6 114.1 176 23
199 Cameron Wilcox 12 St Pius X Catholic (GA) 11 19:06.2 114.1 24
200 Kevin O'Brien 10 Harrison (GA) 4 19:07.1 114.0 177 144
201 Gavin Stark 11 Mill Creek (GA) 12 19:07.2 114.0 19
202 John Baumgartner 11 Woodstock (GA) 5 19:07.5 114.0 178 145
203 Julian Van Elslander 12 Holy Trinity Episcopal (FL) 7 19:07.9 113.9 179 2
204 Hunter Gaskins 9 Holy Trinity Episcopal (FL) 8 19:08.1 113.9 3
205 Max Steele 12 Lakeside DeKalb (GA) 6 19:08.2 113.9 180 146
206 Drew Murphy 12 Hebron Christian Academy (GA) 3 19:09.0 113.8 181 9
207 Charlie Dickinson 9 Holy Trinity Episcopal (FL) 9 19:09.1 113.8 147
208 Patrick Gordon 11 Cartersville (GA) 3 19:09.7 113.7 182 25
209 Walker Hirsch 9 Holy Trinity Episcopal (FL) 10 19:10.4 113.7 148
210 Baxter Hunt 11 Oconee County (GA) 4 19:10.7 113.6 183 149
211 Austin Bailey 10 Woodstock (GA) 6 19:11.2 113.6 184 150
212 Joseph Kennedy 11 Peachtree Ridge (GA) 16 19:11.7 113.6 7
213 Elliott Conrad 10 Creekview (GA) 6 19:12.0 113.5 185 26
214 Cameron Ratchford 11 Grayson (GA) 6 19:12.8 113.4 186 151
215 Ben George 9 Harrison (GA) 5 19:12.9 113.4 187 152
216 Brian Meyer 11 Northview (GA) 5 19:13.1 113.4 188 153
217 Wesley Warbington 10 Hebron Christian Academy (GA) 4 19:13.1 113.4 189 10
218 Justin Sackett 11 Mill Creek (GA) 13 19:13.7 113.4 20
219 Josh Thompson 12 Mt De Sales (GA) 1 19:13.9 113.3 190 11
220 Chris Oswald 11 Creekview (GA) 7 19:13.9 113.3 191 27
221 Jared Deaton 11 Darlington (WI) 2 19:14.0 113.3 192 154
222 Wes Atkins 12 Union Grove (GA) 4 19:14.4 113.3 193 28
223 Drew Young 11 Creekview (GA) 8 19:14.5 113.3 29
224 Austin Dominique 12 West Forsyth (GA) 7 19:14.7 113.3 194 155
225 Thomas Schwind 11 Lambert (GA) 9 19:14.7 113.3 156
226 Hunter Thomason 11 Hewitt-Trussville (AL) 2 19:14.9 113.2 195 21
227 Rob Warren 10 Pace Academy (GA) 4 19:15.8 113.1 196 30
228 Tre Rice 10 Mill Creek (GA) 14 19:16.0 113.1 22
229 Carson Chambliss 10 Auburn (AL) 9 19:16.4 113.1 157
230 Joe Whalley 10 Northview (GA) 6 19:16.5 113.1 197 158
231 Sam Borel 12 Pope (GA) 5 19:16.6 113.1 198 23
232 Luke Wilson 12 Hebron Christian Academy (GA) 5 19:16.9 113.1 199 12
233 Austin Taylor 11 Landmark Christian (GA) 2 19:17.0 113.0 200 159
234 Ka'Deem Wynn 11 Flagler Palm Coast (FL) 6 19:17.6 113.0 201 160
235 Ashton Garrett 12 Flagler Palm Coast (FL) 7 19:17.7 113.0 202 161
236 Gavin Hightower 12 Mandarin (FL) 5 19:18.1 112.9 203 162
237 Sam McWhorter 11 Mountain View (CA) 5 19:18.1 112.9 204 24
238 Phillip Lechner 11 Lakeside DeKalb (GA) 7 19:18.8 112.9 205 163
239 Patrick Nolen 10 Woodstock (GA) 7 19:19.0 112.8 206 164
240 Connor Donahue 10 Starr's Mill (GA) 6 19:19.2 112.8 207 165
241 Christian Speeney 11 North Cobb Comp (GA) 6 19:21.1 112.6 208 166
242 Walker Peterson 11 Mill Creek (GA) 15 19:22.4 112.5 25
243 Sammy Clough 11 Providence Christian (TX) 1 19:22.7 112.5 209 13
244 Brenden Russell 12 West Forsyth (GA) 8 19:23.1 112.5 167
245 Noah Churchwell 11 Northside (Columbus) (GA) 2 19:23.6 112.4 210 31
246 Jack Robbins 12 Harrison (GA) 6 19:23.9 112.4 211 168
247 Alexander Vuckovic 12 Westminster (GA) 7 19:24.0 112.4 212 14
248 Josh Stapleton 11 Leon (FL) 10 19:24.0 112.4 169
249 Emmanuel Devore 9 Grayson (GA) 7 19:24.8 112.3 213 170
250 Ginji Ozawa 9 North Cobb Comp (GA) 7 19:25.5 112.2 214 171
251 Henok Hailu 10 Parkview (GA) 8 19:25.6 112.2 8
252 Alec Rogers 9 Pace Academy (GA) 5 19:25.8 112.2 215 32
253 Adam Blankenbecler 9 Harrison (GA) 7 19:25.9 112.2 216 172
254 Austin Pyle 11 Mill Creek (GA) 16 19:26.3 112.1 26
255 Jacob Greer 11 Pope (GA) 6 19:26.4 112.1 217 27
256 Sam Pritchard 10 The Lovett (GA) 3 19:28.8 111.9 218 28
257 Bereket Tewoldemeheret 10 Clarkston (MI) 6 19:29.4 111.9 219 173
258 Dave Patel 11 Peachtree Ridge (GA) 17 19:29.5 111.8 9
259 Jacob Dodson 9 Leon (FL) 11 19:29.6 111.8 33
260 Bryson Kotas 11 Greenbrier (GA) 4 19:29.8 111.8 220 174
261 Myles Boyd 9 Lakeside DeKalb (GA) 8 19:30.4 111.8 175
262 Matthew Terrill 9 North Cobb Comp (GA) 8 19:30.4 111.8 176
263 Garrett Wilson 10 Mountain View (CA) 6 19:30.6 111.7 221 29
264 Thomas Clements 12 Prince Avenue Christian (GA) 1 19:30.6 111.7 222 15
265 Nathan Jenkins 11 Mountain View (CA) 7 19:31.4 111.7 223 30
266 Nathan Crews 12 Lowndes (GA) 6 19:31.7 111.6 224 31
267 Jordan Prather 10 Lithia Springs (GA) 1 19:31.9 111.6 225 34
268 Stewart Fronk 10 Harrison (GA) 8 19:31.9 111.6 177
269 Stephen Tantimawanich 11 Peachtree Ridge (GA) 18 19:32.5 111.6 10
270 David Michael 10 Parkview (GA) 9 19:32.5 111.6 11
271 Joshua Sorensen 12 Pope (GA) 7 19:32.5 111.6 226 32
272 Jordan Marbury 11 Mill Creek (GA) 17 19:32.9 111.5 33
273 Zack Burnette 9 Union Grove (GA) 5 19:34.2 111.4 227 35
274 Ridge Maxson 12 St Pius X Catholic (GA) 12 19:34.3 111.4 36
275 Nicholas Klavohn 10 The Lovett (GA) 4 19:34.4 111.4 228 34
276 Ben Rolader 12 Auburn (AL) 10 19:34.6 111.4 178
277 Peter Marty 11 Hebron Christian Academy (GA) 6 19:34.8 111.4 229 16
278 Candler Curtis 10 Mill Creek (GA) 18 19:34.9 111.3 35
279 Eric Ravenscraft 10 Harrison (GA) 9 19:35.5 111.3 179
280 Michael Nelson 11 Marietta (OH) 11 19:36.4 111.2 12
281 Nick Whitridge 11 Northview (GA) 7 19:37.0 111.1 230 180
282 Matt Shear 10 Woodstock (GA) 8 19:38.0 111.1 36
283 Mathew Thompson 10 Peachtree Ridge (GA) 19 19:38.1 111.1 13
284 Thomas Houghton 10 St Pius X Catholic (GA) 13 19:38.5 111.0 37
285 Marshall Reed 12 Oconee County (GA) 5 19:38.6 111.0 231 181
286 Oscar Godoy 10 Lakeside DeKalb (GA) 9 19:38.7 111.0 182
287 Connor Keisling 12 Lakeside DeKalb (GA) 10 19:39.2 110.9 183
288 Sean Sullivan 11 Parkview (GA) 10 19:39.4 110.9 184
289 Parker Fredrick 10 Lambert (GA) 10 19:39.9 110.9 185
290 Matthew Osborn 12 Allatoona (GA) 3 19:40.2 110.9 232 38
291 Alex Miranda 12 West Forsyth (GA) 9 19:40.7 110.8 186
292 Ethan Porter 12 Grayson (GA) 8 19:41.1 110.8 187
293 Nick Lyon 9 West Forsyth (GA) 10 19:41.2 110.8 188
294 Chace Cobb 12 Parkview (GA) 11 19:41.3 110.8 14
295 Griffin McNamara 11 Woodstock (GA) 9 19:41.7 110.7 189
296 Spencer Skaggs 9 Parkview (GA) 12 19:42.3 110.7 15
297 Travis Lyles 12 Harrison (GA) 10 19:42.8 110.6 190
298 Joshua Plauche 12 Allatoona (GA) 4 19:43.3 110.6 233 39
299 Daniel Cronin 11 Holy Trinity Episcopal (FL) 11 19:43.5 110.6 191
300 Tristian McEwen 11 Carrollton (GA) 5 19:44.2 110.5 234 40
301 Sumter Fiveash 11 Westminster (GA) 8 19:44.2 110.5 16
302 Anthony Agcaoil 10 Greenbrier (GA) 5 19:45.2 110.4 235 192
303 Daren Druhl 11 Mandarin (FL) 6 19:45.4 110.4 236 193
304 Owen Poirier 11 Mandarin (FL) 7 19:45.4 110.4 237 194
305 Nicolas Sandberg 10 Mountain View (CA) 8 19:45.8 110.3 37
306 Daniel Swilley 10 Lowndes (GA) 7 19:47.0 110.2 238 38
307 Matthew Beach 10 St Pius X Catholic (GA) 14 19:47.6 110.2 41
308 Eli Moore 11 Newnan (GA) 1 19:48.0 110.1 239 39
309 Mark Perez 10 Parkview (GA) 13 19:48.7 110.1 195
310 Enrique Inostroza 11 Newnan (GA) 2 19:48.7 110.1 240 40
311 Andy Caudell 10 Greenbrier (GA) 6 19:49.3 110.0 241 196
312 Devin Lohman 9 Starr's Mill (GA) 7 19:49.9 110.0 242 197
313 Phillip Correa 11 Flowery Branch (GA) 5 19:50.0 110.0 243 198
314 Rylan Heisser 10 Allatoona (GA) 5 19:50.1 110.0 244 42
315 Josh Seiden 9 Pope (GA) 8 19:50.5 109.9 17
316 Trey Pitten 11 Holy Trinity Episcopal (FL) 12 19:50.6 109.9 4
317 Damon Purdy 10 Hewitt-Trussville (AL) 3 19:50.7 109.9 245 41
318 Jacob Bilthuis 12 Loganville (GA) 2 19:50.9 109.9 246 43
319 Dylan Mason 9 Woodstock (GA) 10 19:51.5 109.8 42
320 Charlie Powers 12 The Lovett (GA) 5 19:52.1 109.8 247 43
321 Cooper Metzler 12 St Pius X Catholic (GA) 15 19:52.2 109.8 44
322 Sean Adams 11 Mandarin (FL) 8 19:52.7 109.7 199
323 Mitchell Mazzoni 12 Pope (GA) 9 19:52.9 109.7 44
324 Will Dearman 11 Starr's Mill (GA) 8 19:53.4 109.6 200
325 Matthew Wiggin 11 Allatoona (GA) 6 19:54.6 109.5 248 45
326 Joshua Knight 10 Holy Trinity Episcopal (FL) 13 19:56.5 201
327 Andrew Duffie 10 Providence Christian (TX) 2 19:57.2 109.3 249 17
328 Jacob Rigsby 9 Woodstock (GA) 11 19:57.4 109.3 202
329 Andrei Townley 10 Greenbrier (GA) 7 19:58.6 109.2 250 203
330 Tony Sarluca 12 Shaw (GA) 2 19:59.2 109.1 251 204
331 Spencer Lail 9 Parkview (GA) 14 20:00.5 109.0 18
332 Jordan Jones 9 Starr's Mill (GA) 9 20:00.7 109.0 46
333 Davis Hardell 10 Oconee County (GA) 6 20:00.8 109.0 252 205
334 Cody Cauffman 11 Cartersville (GA) 4 20:01.0 109.0 253 47
335 Joseph Aucoin 12 Northview (GA) 8 20:01.1 109.0 206
336 allen Cunningham 11 Northview (GA) 9 20:01.5 108.9 207
337 Josh Russell 11 Mt De Sales (GA) 2 20:01.7 108.9 254 18
338 Patrick Sword 12 Peachtree Ridge (GA) 20 20:02.7 108.8 19
339 Nathan Smith 12 Oconee County (GA) 7 20:03.0 108.8 255 19
340 Trevor Melehan 10 Woodstock (GA) 12 20:03.0 108.8 45
341 Futrell Wesley 12 Central (Carroll County) (GA) 1 20:03.1 108.8 256 20
342 Kai Langston 10 Grayson (GA) 9 20:03.4 108.8 208
343 Charlie Lang 11 Leon (FL) 12 20:03.5 108.7 48
344 Alex Carmichael 11 Mountain View (CA) 9 20:04.3 108.7 46
345 Jake French 10 Marietta (OH) 12 20:05.5 108.6 20
346 Connor Allen 9 Providence Christian (TX) 3 20:05.7 108.6 257 21
347 Wyatt Perkins 11 Oconee County (GA) 8 20:07.2 108.4 209
348 Chris Acuff 11 Grayson (GA) 10 20:07.2 108.4 47
349 Luke Anderson 10 Union Grove (GA) 6 20:07.4 108.4 258 49
350 Robert Skrob 10 Leon (FL) 13 20:07.6 108.4 50
351 Kyle Johnston 11 Pope (GA) 10 20:07.7 108.4 21
352 Jack Stone 9 Westminster (GA) 9 20:08.6 108.3 22
353 David Gunn 9 Grayson (GA) 11 20:09.1 108.2 48
354 Walt Ramsey 10 Pope (GA) 11 20:09.8 108.2 23
355 Anthony French 10 Grayson (GA) 12 20:10.6 108.1 49
356 Jon London 10 Marietta (OH) 13 20:11.1 108.1 24
357 Pranav Rekapalli 10 Westminster (GA) 10 20:11.6 108.0 22
358 Nathanial Basford 7 Holy Trinity Episcopal (FL) 14 20:12.9 125.0 5
359 Torin O'Brien 7 Holy Trinity Episcopal (FL) 15 20:13.1 6
360 Chris Kersten 12 Mandarin (FL) 9 20:13.8 107.8 23
361 Patrick Morgan 11 Carrollton (GA) 6 20:14.3 107.8 259 51
362 Mitchell Ostrow 10 Westminster (GA) 11 20:14.8 107.8 24
363 Micah Burdette 9 Landmark Christian (GA) 3 20:15.7 107.7 260 210
364 Marc Grindy 10 Flowery Branch (GA) 6 20:15.8 107.7 261 211
365 Chris Schintgen 10 Northside (Columbus) (GA) 3 20:16.1 107.6 262 52
366 Jeremy Bertulfo 10 St Pius X Catholic (GA) 16 20:16.6 107.6 53
367 Alex Keller 12 Mountain View (CA) 10 20:16.9 107.6 50
368 Victor Andrada 12 Peachtree Ridge (GA) 21 20:18.0 107.5 7
369 Lucas Heim 10 Peachtree Ridge (GA) 22 20:18.1 107.5 8
370 Andrew Randazza 12 Providence Christian (TX) 4 20:18.2 107.5 263 25
371 Andrew Murfee 9 Woodward Academy (GA) 5 20:18.5 107.4 264 212
372 Christian Rodriguez 9 Mandarin (FL) 10 20:18.6 107.4 26
373 Joey Jackson 11 St Pius X Catholic (GA) 17 20:19.2 107.4 54
374 Jason Arceneaux 10 Mill Creek (GA) 19 20:19.9 107.3 51
375 Angel Trejo 12 Flowery Branch (GA) 7 20:20.0 107.3 265 213
376 Austin Atkinson 10 Hewitt-Trussville (AL) 4 20:20.8 107.2 266 52
377 Jaxon Muzik 11 Loganville (GA) 3 20:20.8 107.2 267 55
378 John Wiggins 10 Starr's Mill (GA) 10 20:22.0 107.1 56
379 Chandler Scoggins 11 Providence Christian (TX) 5 20:22.5 107.1 268 27
380 Brian Smith 9 Woodward Academy (GA) 6 20:22.7 107.1 269 214
381 Nolan Turner 11 St Pius X Catholic (GA) 18 20:22.7 107.1 9
382 Gamaliel Torres 12 Northside (Columbus) (GA) 4 20:22.9 107.0 270 57
383 Andy Sims 10 Cartersville (GA) 5 20:23.0 107.0 271 58
384 Jason Hambey 10 Hewitt-Trussville (AL) 5 20:23.3 107.0 272 53
385 Ben Thomas 11 Starr's Mill (GA) 11 20:23.3 107.0 59
386 Ryan Larcinese 10 Northview (GA) 10 20:24.1 107.0 215
387 Walker Johnson 11 Lowndes (GA) 8 20:24.6 106.9 54
388 Lars Kolvereid 11 St Pius X Catholic (GA) 19 20:24.9 106.9 10
389 Kevin Kreulen 12 Starr's Mill (GA) 12 20:25.2 106.9 60
390 Chase Matthews 12 Hewitt-Trussville (AL) 6 20:25.7 106.8 273 55
391 Jett Hart 9 Woodstock (GA) 13 20:25.7 106.8 56
392 Dallin Anderson 11 Central (Carroll County) (GA) 2 20:25.9 106.8 274 28
393 John Wymer 10 The Lovett (GA) 6 20:26.8 106.7 275 57
394 Dustin Matthews 11 Northside (Columbus) (GA) 5 20:27.5 106.7 276 61
395 Will Fritsch 9 Marietta (OH) 14 20:27.5 106.7 25
396 Kyle Basila 10 Creekview (GA) 9 20:27.6 106.6 62
397 Griffin Leinbach 11 The Lovett (GA) 7 20:27.7 106.6 277 58
398 Ishan Ghosh 9 Westminster (GA) 12 20:28.5 106.6 26
399 William Fitzharris 10 Westminster (GA) 13 20:29.9 106.4 27
400 Blake Sheppard 10 Hewitt-Trussville (AL) 7 20:29.9 106.4 278 28
401 Tyler Brantley 12 Central (Carroll County) (GA) 3 20:30.0 106.4 279 29
402 Michael Nguyen 10 Flowery Branch (GA) 8 20:30.2 106.4 216
403 Jonathan Cook 9 Creekview (GA) 10 20:30.3 106.4 63
404 Parker Wilson 11 St Pius X Catholic (GA) 20 20:30.4 106.4 64
405 Jake Lugenbeel 12 Greenbrier (GA) 8 20:30.7 106.4 217
406 Darryl Brown 10 Marietta (OH) 15 20:30.8 106.4 29
407 Hayden Guthrie 9 Oconee County (GA) 9 20:30.9 106.4 30
408 Andres Malave 10 Westminster (GA) 14 20:31.3 106.3 11
409 Andrew Valbuena 10 South Paulding (GA) 1 20:31.6 106.3 280 218
410 North Carter 11 Carrollton (GA) 7 20:32.2 106.3 281 65
411 Devin Plauche 11 Allatoona (GA) 7 20:32.3 106.2 282 66
412 Joel Scherr 10 Pope (GA) 12 20:32.4 106.2 30
413 Andre Andrews 12 Loganville (GA) 4 20:33.0 106.2 283 67
414 Will Beam 10 Loganville (GA) 5 20:33.7 106.1 284 68
415 Gerson Guzman 12 Pope (GA) 13 20:35.9 105.9 59
416 Douglas Baird-Miller 12 Carrollton (GA) 8 20:36.2 105.9 69
417 Nicholas Stigaard 11 St Pius X Catholic (GA) 21 20:36.4 105.9 12
418 Harrison Morris 9 Oconee County (GA) 10 20:37.6 105.8 31
419 William Bowen 10 The Lovett (GA) 8 20:37.7 105.8 31
420 Alex Centi 12 Flagler Palm Coast (FL) 8 20:38.0 105.8 219
421 Colin O'Neal 10 Oconee County (GA) 11 20:38.3 105.7 220
422 Phillip Thornton 9 The Lovett (GA) 9 20:39.8 105.6 32
423 Evan Torris 10 Starr's Mill (GA) 13 20:40.6 105.5 70
424 Joshua Leverette 9 Lithia Springs (GA) 2 20:41.5 105.5 285 71
425 Caleb King 11 Oconee County (GA) 12 20:41.6 105.5 221
426 Caleb Peppers 12 Lithia Springs (GA) 3 20:42.3 105.4 286 72
427 Espen Oswald 9 Mt Paran Christian (GA) 1 20:42.5 105.4 287 32
428 Dakota Gulasa 11 Cartersville (GA) 6 20:43.6 105.3 288 73
429 Paul Lyons 11 Pope (GA) 14 20:45.0 105.2 33
430 Matthew Intriago 10 South Paulding (GA) 2 20:45.1 105.2 289 222
431 Nicholas Brink 12 The Lovett (GA) 10 20:45.3 105.2 60
432 Andrew Taylor 11 Westminster (GA) 15 20:45.9 105.1 33
433 Kermit Jackson 10 Landmark Christian (GA) 4 20:46.0 105.1 290 223
434 Taylor Chestnutt 9 Marietta (OH) 16 20:46.0 105.1 34
435 Ben Glover 10 Hebron Christian Academy (GA) 7 20:46.1 105.1 291 34
436 Kendall Hilinski 10 Starr's Mill (GA) 14 20:46.3 105.1 74
437 Alex Paul 10 Mandarin (FL) 11 20:47.8 104.9 35
438 Mark Humphries 10 Landmark Christian (GA) 5 20:48.1 104.9 292 224
439 Brock Cullman 11 Woodstock (GA) 14 20:49.2 104.8 61
440 Rains Draper 9 Westminster (GA) 16 20:49.4 104.8 35
441 Justin Brown 9 Grayson (GA) 13 20:49.6 104.8 225
442 Daniel Whitaker 12 The Lovett (GA) 11 20:50.3 104.7 62
443 Jack Cahillane 10 Westminster (GA) 17 20:51.1 104.7 36
444 Steve Rayburn 12 Newnan (GA) 3 20:51.4 104.7 293 63
445 Josh Catt 10 Woodstock (GA) 15 20:51.9 104.6 226
446 Matthew Crawford 11 Grayson (GA) 14 20:51.9 104.6 64
447 Ben Gordon 8 Marietta (OH) 17 20:52.2 121.2 37
448 Bailey Gay 9 Union Grove (GA) 7 20:52.3 104.6 294 75
449 Tyler Jackson 12 Hewitt-Trussville (AL) 8 20:53.0 104.5 65
450 Blake Lowenberg 10 Darlington (WI) 3 20:53.7 104.5 295 227
451 Chandler Edge 10 Darlington (WI) 4 20:53.8 104.5 296 228
452 Matt Dalton 11 Peachtree Ridge (GA) 23 20:54.0 104.4 13
453 Jonathan Bimpa 12 Loganville (GA) 6 20:54.8 104.4 297 76
454 Tim Ziemathis 10 Mandarin (FL) 12 20:56.3 104.2 36
455 Parker Berry 10 South Paulding (GA) 3 20:56.5 104.2 298 229
456 Emmery Cary 11 Carrollton (GA) 9 20:56.8 104.2 77
457 John Sheehan 10 Westminster (GA) 18 20:57.2 104.2 38
458 Emilio Zipf 11 Holy Trinity Episcopal (FL) 16 20:57.6 104.1 14
459 Dewayne Rink 11 Loganville (GA) 7 20:57.8 104.1 299 78
460 Eli Bryce 12 South Paulding (GA) 4 20:58.9 104.0 300 230
461 Xavier Rodriguez 11 Pope (GA) 15 20:58.9 104.0 15
462 Adi Gummadi 10 Peachtree Ridge (GA) 24 20:59.5 104.0 16
463 Stanley Joseph 10 Parkview (GA) 15 20:59.8 104.0 39
464 Harrison Lewis 9 Pace Academy (GA) 6 21:00.4 103.9 301 79
465 Cortney Brown 11 Carrollton (GA) 10 21:01.0 103.9 40
466 Cope Fitzharris 10 Westminster (GA) 19 21:01.0 103.9 17
467 Scott Johnson 10 Hewitt-Trussville (AL) 9 21:01.1 103.9 41
468 Alex Kaye 10 Pace Academy (GA) 7 21:01.3 103.8 302 80
469 Connor Wright 12 Allatoona (GA) 8 21:01.5 103.8 81
470 William Chandler 12 Hewitt-Trussville (AL) 10 21:02.3 103.8 42
471 Casey Monyak 9 Westminster (GA) 20 21:02.3 103.8 43
472 Peyton Adkins 12 Providence Christian (TX) 6 21:02.8 103.7 303 37
473 Sam Baker 11 The Lovett (GA) 12 21:03.2 103.7 66
474 Timothy Ngaruiya 10 Hewitt-Trussville (AL) 11 21:03.6 103.7 67
475 Christian Potts 11 Central (Carroll County) (GA) 4 21:03.7 103.6 304 38
476 Sarosh Taufiq 10 Peachtree Ridge (GA) 25 21:03.9 103.6 18
477 Jaden Miller 10 Hebron Christian Academy (GA) 8 21:04.0 103.6 39
478 Micah Stovall 10 Hewitt-Trussville (AL) 12 21:04.2 103.6 44
479 Rowan Wiley 8 St Pius X Catholic (GA) 22 21:04.8 120.0 19
480 Will Schmersal 9 The Lovett (GA) 13 21:06.4 103.4 45
481 Mitch Veazey 11 Peachtree Ridge (GA) 26 21:08.4 103.3 20
482 Tiernan Whytock 11 Bremen (GA) 1 21:09.8 103.2 305 40
483 Luke Jones 9 Westminster (GA) 21 21:12.0 103.0 21
484 Ryan Cost 10 Newnan (GA) 4 21:12.6 103.0 306 68
485 Hamilton Armit 12 Prince Avenue Christian (GA) 2 21:13.4 102.9 307 41
486 William Smith 11 Carrollton (GA) 11 21:13.6 102.9 46
487 Adam Ford 10 Union Grove (GA) 8 21:13.6 102.9 82
488 Jake Jenkins 11 Pace Academy (GA) 8 21:13.7 102.9 83
489 Devin Walters 10 Northside (Columbus) (GA) 6 21:14.6 102.8 308 84
490 Javier Schirmer 9 Pope (GA) 16 21:15.0 102.8 47
491 Jack Cenatempo 9 Woodward Academy (GA) 7 21:15.1 102.8 309 231
492 Nick Halliday 10 Peachtree Ridge (GA) 27 21:15.7 102.7 22
493 Scott Anderson 12 Central (Carroll County) (GA) 5 21:16.2 102.7 310 42
494 Conor Sheehan 9 St Pius X Catholic (GA) 23 21:16.8 102.7 23
495 David Mejia 10 Cartersville (GA) 7 21:16.9 102.6 311 85
496 Cameron Wilder 12 Greenbrier (GA) 9 21:17.1 102.6 232
497 William Boydstun 11 Holy Trinity Episcopal (FL) 17 21:17.2 102.6 24
498 Chris Turner 11 South Paulding (GA) 5 21:17.6 102.6 312 86
499 Wes Andrews 11 Darlington (WI) 5 21:17.7 102.6 313 233
500 Josh Albertus 9 Carrollton (GA) 12 21:19.0 102.5 48
501 Craig Beshears 10 Mandarin (FL) 13 21:19.6 102.4 43
502 Kelton McConnell 10 Oconee County (GA) 13 21:20.0 102.4 44
503 June Byun 10 Peachtree Ridge (GA) 28 21:20.0 102.4 25
504 Daniel Lawson 10 Loganville (GA) 8 21:20.6 102.3 87
505 Cam Mallett 11 Oconee County (GA) 14 21:21.3 102.3 45
506 Hunter Cobb 12 South Paulding (GA) 6 21:21.7 102.3 314 234
507 Campbell Holley 11 Hewitt-Trussville (AL) 13 21:21.9 102.2 69
508 Brendan McGregor 10 Peachtree Ridge (GA) 29 21:22.5 102.2 26
509 Bryce Smith 9 Starr's Mill (GA) 15 21:23.5 102.1 88
510 Chase Griffin 10 Carrollton (GA) 13 21:23.8 102.1 89
511 Jack Hrinko 12 Newnan (GA) 5 21:23.9 102.1 315 70
512 Austin Griffies 8 Carrollton (GA) 14 21:25.1 102.0 27
513 Davis Bell 8 Holy Trinity Episcopal (FL) 18 21:25.7 118.1 28
514 Garrison Taylor 10 Oconee County (GA) 15 21:25.8 101.9 46
515 Tim Mitchell 11 Oconee County (GA) 16 21:28.1 101.8 47
516 Patrick Crawford 10 St Pius X Catholic (GA) 24 21:28.5 101.7 29
517 Mason Arbery 9 Westminster (GA) 22 21:29.5 101.6 49
518 Sam Coody 11 Newnan (GA) 6 21:30.0 101.6 316 71
519 John Caliri 10 Pope (GA) 17 21:31.4 101.5 50
520 Ly Sambau 11 Central (Carroll County) (GA) 6 21:31.7 101.5 317 48
521 Taylor Napolitan 12 Mandarin (FL) 14 21:31.9 101.4 49
522 David Hill 11 South Paulding (GA) 7 21:32.0 101.4 318 235
523 Floribert Ngandu 11 Clarkston (MI) 7 21:32.3 101.4 319 236
524 Sebastian Weber 11 St Pius X Catholic (GA) 25 21:32.5 101.4 90
525 Matthew Gutmann 11 St Pius X Catholic (GA) 26 21:34.1 101.3 30
526 Louis Reed 9 Oconee County (GA) 17 21:34.6 101.2 50
527 Ben Gregg 10 Parkview (GA) 16 21:35.5 101.2 51
528 Alex Coughlin 12 Union Grove (GA) 9 21:36.2 101.1 91
529 Edward Holliday 10 Westminster (GA) 23 21:36.8 101.1 31
530 Alex Garcia 11 Hewitt-Trussville (AL) 14 21:37.3 101.0 52
531 Alex Bergeron 12 St Pius X Catholic (GA) 27 21:37.8 101.0 32
532 Treven Cliatt 12 Shaw (GA) 3 21:38.8 100.9 320 237
533 Nate Agcaoili 9 Greenbrier (GA) 10 21:39.1 100.9 238
534 Zach Washburn 9 St Pius X Catholic (GA) 28 21:39.8 100.8 33
535 Justin Phelps 11 Shaw (GA) 4 21:40.0 100.8 321 239
536 Grier Jobson 9 St Pius X Catholic (GA) 29 21:40.2 100.8 34
537 Rory Abrams 11 Parkview (GA) 17 21:40.9 100.8 53
538 Sam Heiner 10 The Lovett (GA) 14 21:42.3 100.6 54
539 Tyler Means 12 Westminster (GA) 24 21:42.9 100.6 55
540 Jack Wray 9 Pace Academy (GA) 9 21:44.3 100.5 92
541 Henry Fields 10 Darlington (WI) 6 21:44.7 100.4 322 240
542 Allen Kim 9 Mt De Sales (GA) 3 21:47.1 100.3 323 51
543 Alex Martinez 12 Central (Carroll County) (GA) 7 21:49.1 100.1 324 52
544 Adam Cole 7 Holy Trinity Episcopal (FL) 19 21:49.4 116.0 35
545 Zavry Simpson 12 Hewitt-Trussville (AL) 15 21:50.6 100.0 56
546 Patton Mouser 10 Bremen (GA) 2 21:51.6 99.9 325 53
547 Robert Cushing 11 Westminster (GA) 25 21:52.5 99.9 36
548 Brendan Boyle 11 Pope (GA) 18 21:52.8 99.8 57
549 Colton Pace 12 Oconee County (GA) 18 21:53.2 99.8 241
550 Justyn Joseph-Ford 9 Allatoona (GA) 9 21:53.4 99.8 93
551 Charlie Padgett 10 The Lovett (GA) 15 21:53.6 99.8 58
552 Ross Kasselder 9 Carrollton (GA) 15 21:53.6 99.8 59
553 David London 12 Leon (FL) 14 21:54.7 99.7 94
554 Justin Young 11 Marietta (OH) 18 21:55.6 99.6 60
555 Hari Dandapani 8 Holy Trinity Episcopal (FL) 20 21:55.8 115.5 37
556 Harrison Floam 12 Mt Paran Christian (GA) 2 21:56.4 99.6 326 54
557 David Cornelius 12 Newnan (GA) 7 21:58.0 99.4 327 61
558 Dana Taylor-fifield 11 Grayson (GA) 15 21:58.2 99.4 72
559 Nathaniel Campbell 12 Hewitt-Trussville (AL) 16 21:59.3 99.3 62
560 Christian Thomsen 11 Starr's Mill (GA) 16 21:59.4 99.3 63
561 Camwren Wells 10 Peachtree Ridge (GA) 30 22:01.2 99.2 38
562 Jack Wilfong 12 Prince Avenue Christian (GA) 3 22:04.0 99.0 328 55
563 Enoc Guzman 11 Pope (GA) 19 22:04.4 39
564 Riley Nasarallah 9 Mt Paran Christian (GA) 3 22:05.7 98.9 329 56
565 Tyler Mathena 10 Woodstock (GA) 16 22:06.4 98.8 73
566 Franklin Tije 9 Lithia Springs (GA) 4 22:07.9 330 95
567 Jaedon Mason 10 Westminster (GA) 26 22:08.6 98.7 40
568 Cole Begnaud 12 Shaw (GA) 5 22:09.3 98.6 331 242
569 John Ellison 10 Starr's Mill (GA) 17 22:09.7 98.6 64
570 Ben Hopton 12 Woodstock (GA) 17 22:10.5 98.5 74
571 Lawson Sumner 11 Darlington (WI) 7 22:13.0 98.3 332 243
572 Tyler Baars 11 Newnan (GA) 8 22:14.2 98.2 75
573 Noah Woford 10 Darlington (WI) 8 22:15.2 98.2 244
574 Jacamby Parham 10 Carrollton (GA) 16 22:15.6 98.1 65
575 Drew Morgan 11 LaGrange (GA) 2 22:15.7 98.1 333 96
576 Nathan Williams 12 Mt Paran Christian (GA) 4 22:15.7 98.1 334 57
577 Gary Swinney 10 Lithia Springs (GA) 5 22:15.8 98.1 335 97
578 Cameo Wilkerson 10 Marietta (OH) 19 22:16.2 98.1 41
579 Nick Becker 10 The Lovett (GA) 16 22:16.8 98.0 66
580 Byrce Nygaard 11 Hebron Christian Academy (GA) 9 22:18.0 97.9 67
581 Stuart Mckay 9 Mt Paran Christian (GA) 5 22:18.4 97.9 336 58
582 Jacob Wudke 9 Parkview (GA) 18 22:20.3 42
583 Jim Bethea 10 The Lovett (GA) 17 22:20.6 97.8 68
584 Jake Hacker 10 Cartersville (GA) 8 22:21.2 97.7 98
585 Seth Johnson 12 Cartersville (GA) 9 22:22.9 97.6 99
586 John Moffett 10 The Lovett (GA) 18 22:23.9 97.5 43
587 Matthew Jiles 10 Bremen (GA) 3 22:24.5 97.5 337 59
588 Max Russ 10 The Lovett (GA) 19 22:24.9 97.4 69
589 Jake Eastridge 10 Woodstock (GA) 18 22:25.7 97.4 76
590 Ben McKinley 10 Pope (GA) 20 22:26.9 97.3 44
591 Nathan Ryffe 12 Northside (Columbus) (GA) 7 22:27.9 97.2 338 100
592 Zach Matthews 10 Carrollton (GA) 17 22:28.2 97.2 70
593 An-Nas Parkmond 10 Marietta (OH) 20 22:29.5 97.1 71
594 John Hancock 10 Loganville (GA) 9 22:30.1 97.1 101
595 Matthew Brown 11 Loganville (GA) 10 22:30.4 97.1 102
596 Adam Liang 9 Westminster (GA) 27 22:32.1 96.9 45
597 Daniel Redding 11 Grayson (GA) 16 22:33.0 96.9 77
598 Mattheus Torris 9 Starr's Mill (GA) 18 22:33.1 96.9 72
599 Cyrus Faruque 10 Westminster (GA) 28 22:33.3 96.8 46
600 Roen Algea 9 Mt De Sales (GA) 4 22:34.2 96.8 339 60
601 Tripp Cloud 9 Pope (GA) 21 22:34.2 96.8 47
602 Albert Shin 9 Bremen (GA) 4 22:36.1 96.7 340 61
603 Dillon Dod 9 The Lovett (GA) 20 22:37.0 96.6 73
604 Gabe McNett 9 Grayson (GA) 17 22:37.9 78
605 Vincent Ndungu 12 North Cobb Comp (GA) 9 22:38.1 96.6 245
606 Drew Smith 10 Westminster (GA) 29 22:38.4 96.5 48
607 Alex Fangmann 9 St Pius X Catholic (GA) 30 22:39.5 96.5 49
608 Cameron Walcott 8 Holy Trinity Episcopal (FL) 21 22:40.6 111.7 50
609 Colter Foster 10 Leon (FL) 15 22:41.2 103
610 Kyle Ennis 12 The Lovett (GA) 21 22:41.2 96.3 51
611 Gabe Taylor 7 Holy Trinity Episcopal (FL) 22 22:43.4 111.5 52
612 Jackson Pruehl 9 Grayson (GA) 18 22:44.3 96.1 79
613 John Bryan 9 St Pius X Catholic (GA) 31 22:45.3 96.1 53
614 Taylor Walshe 11 Oconee County (GA) 19 22:46.5 96.0 62
615 Nick Viland 9 Pope (GA) 22 22:47.1 54
616 Austin Stamper 10 LaGrange (GA) 3 22:47.1 95.9 341 104
617 Jean Luc Leroux 9 Grayson (GA) 19 22:47.6 95.9 80
618 Zach Rosinko 10 Woodstock (GA) 19 22:48.9 95.8 81
619 Arthur Elrod 9 Starr's Mill (GA) 19 22:49.8 55
620 Jan Estrada 9 Pope (GA) 23 22:51.5 95.6 74
621 Jason Ceto 10 Westminster (GA) 30 22:52.6 95.5 56
622 Avery Mellen 9 Pope (GA) 24 22:52.9 95.5 57
623 Ryan Terrell 11 Starr's Mill (GA) 20 22:53.5 95.5 75
624 Jake Johnston 10 Newnan (GA) 9 22:55.4 95.4 76
625 Phil Bridgers 9 Mt. Zion (Carroll) (GA) 1 22:55.4 95.4 77
626 Cole Henry 11 South Paulding (GA) 8 22:55.5 95.4 246
627 Liam Kim 10 Holy Trinity Episcopal (FL) 23 22:57.4 95.2 58
628 James Wang 11 Mt De Sales (GA) 5 22:57.6 95.2 342 63
629 Harrison Tarr 9 Grayson (GA) 20 22:58.2 95.2 82
630 Sergio Ruiz 11 Lithia Springs (GA) 6 22:58.8 95.1 343 105
631 Wilson Dobbs 10 The Lovett (GA) 22 22:59.8 95.1 59
632 Pierce Monroe 9 Darlington (WI) 9 23:00.4 95.0 247
633 Jonathan Pulliam 10 LaGrange (GA) 4 23:00.7 95.0 344 106
634 Chris Hadlow 10 Pope (GA) 25 23:00.9 95.0 60
635 Ben Blunier 12 Northside (Columbus) (GA) 8 23:01.9 94.9 107
636 Kyle Henry 11 Parkview (GA) 19 23:02.0 94.9 61
637 Tomas Gowens 10 The Lovett (GA) 23 23:02.9 94.8 62
638 Tommy Westenberger 9 St Pius X Catholic (GA) 32 23:03.8 94.8 63
639 Josh Totten 9 South Paulding (GA) 9 23:04.9 94.7 248
640 Matt Lemon 10 Mt De Sales (GA) 6 23:07.0 94.6 345 64
641 Alex Waters 9 Parkview (GA) 20 23:07.0 94.6 64
642 Ernesto Barrente 11 Lithia Springs (GA) 7 23:08.2 94.5 346 78
643 Patrick Kelly 10 Starr's Mill (GA) 21 23:09.2 94.4 79
644 Matthew Koch 11 St Pius X Catholic (GA) 33 23:11.0 94.3 65
645 Nick Covington 11 St Pius X Catholic (GA) 34 23:11.8 94.3 66
646 Seth Lashley 10 Prince Avenue Christian (GA) 4 23:12.0 94.2 347 65
647 Jacob Totten 11 South Paulding (GA) 10 23:12.9 94.2 249
648 Jack Griffith 11 Carrollton (GA) 18 23:15.4 94.0 80
649 Riley Fowler 11 Newnan (GA) 10 23:15.8 94.0 81
650 Matthew Stinchcomb 11 South Paulding (GA) 11 23:16.4 94.0 250
651 Josh Pierce 10 Carrollton (GA) 19 23:16.6 93.9 82
652 Matthew Schantz 10 St Pius X Catholic (GA) 35 23:16.9 93.9 67
653 Chris Kojali 10 Starr's Mill (GA) 22 23:19.8 108
654 Tucker Barr 12 Heard County (GA) 1 23:20.2 93.7 348 66
655 Nick Walker 9 St Pius X Catholic (GA) 36 23:20.5 93.7 68
656 Daniel Huff 11 Central (Carroll County) (GA) 8 23:20.9 93.6 83
657 Bo Sinkler 12 The Lovett (GA) 24 23:22.3 93.6 69
658 Kirby Cargal 11 Bremen (GA) 5 23:22.3 93.6 349 67
659 Nick Thurkow-Schlund 9 The Lovett (GA) 25 23:22.6 93.5 70
660 Austin Raridon 11 Woodstock (GA) 20 23:23.3 93.5 83
661 James Dickey 10 Westminster (GA) 31 23:24.0 93.4 71
662 Amir Suber 9 The Lovett (GA) 26 23:26.1 93.3 84
663 John Henson 9 Starr's Mill (GA) 23 23:28.6 93.1 85
664 Vishal Hansalia 10 The Lovett (GA) 27 23:28.8 93.1 72
665 Adam Norman 11 South Paulding (GA) 12 23:29.5 93.1 109
666 Sidney Miller 9 Starr's Mill (GA) 24 23:29.5 93.1 86
667 Gamada Fayiso 10 Clarkston (MI) 8 23:29.9 93.1 251
668 Jens Sebber 11 Holy Trinity Episcopal (FL) 24 23:30.2 93.0 73
669 Kush Bansal 11 Westminster (GA) 32 23:31.7 92.9 74
670 Jason Gong 12 Holy Trinity Episcopal (FL) 25 23:32.0 92.9 75
671 Patrick Bonnie 10 St Pius X Catholic (GA) 37 23:32.1 92.9 76
672 Zach Harris 11 Bremen (GA) 6 23:33.4 92.8 350 68
673 Bailey Belisario 10 Cartersville (GA) 10 23:34.4 92.8 110
674 Jake McWhorter 11 Mt Paran Christian (GA) 6 23:35.6 92.7 351 87
675 Alex Weltz 10 Pope (GA) 26 23:36.1 92.7 77
676 Chase Perkins 10 The Lovett (GA) 28 23:37.1 92.6 78
677 Griffin Bogner 10 Mt Paran Christian (GA) 7 23:37.4 92.6 352 69
678 Alex Coughlin 12 Union Grove (GA) 10 23:38.0 79
679 Ian Winkelvoss 10 Pope (GA) 27 23:39.8 92.4 80
680 Jostin Calo 10 St Pius X Catholic (GA) 38 23:40.7 92.4 81
681 Dylan Oden 11 Starr's Mill (GA) 25 23:41.2 92.3 111
682 Adam Paugh 11 Starr's Mill (GA) 26 23:41.7 92.3 88
683 Julius Andrada 12 Mt De Sales (GA) 7 23:42.7 92.2 353 70
684 Courtney Stroud 9 Temple (TX) 1 23:44.4 92.1 71
685 Erik Montag 9 Westminster (GA) 33 23:46.1 92.0 82
686 Matthew Butt 10 Prince Avenue Christian (GA) 5 23:47.1 92.0 354 72
687 Austin Thompson 12 Bremen (GA) 7 23:48.7 91.9 355 73
688 Noah Neidlinger 9 Starr's Mill (GA) 27 23:49.8 91.8 83
689 Brian Hill 11 Heard County (GA) 2 23:50.3 91.8 356 74
690 Jack Slagle 9 Providence Christian (TX) 7 23:54.6 91.5 357 75
691 Bradley Jones 10 Westminster (GA) 34 23:54.8 84
692 Jackson Neely 10 Newnan (GA) 11 23:54.8 91.5 89
693 Timothy Smalls 12 South Paulding (GA) 13 23:57.1 91.3 112
694 Taylor Legg 11 Providence Christian (TX) 8 24:00.5 91.1 76
695 Harrison Meyer 11 Mt Paran Christian (GA) 8 24:02.4 91.0 77
696 Hughes Moffett 12 The Lovett (GA) 29 24:04.6 90.9 85
697 Channing Chastain 11 Central (Carroll County) (GA) 9 24:08.0 90.6 90
698 Jordan Timmons 12 Heard County (GA) 3 24:09.8 90.5 358 78
699 Russel Marcum 10 Starr's Mill (GA) 28 24:12.2 90.4 91
700 Jack Ganiban 9 Holy Trinity Episcopal (FL) 26 24:15.5 90.2 86
701 Ethan Caldwell 12 Heard County (GA) 4 24:16.5 90.1 359 79
702 Ethan Martin 9 South Paulding (GA) 14 24:19.1 90.0 113
703 Nick Bradley 9 Heard County (GA) 5 24:19.4 89.9 360 80
704 Joseph Higginbotham 10 Oconee County (GA) 20 24:24.8 89.6 92
705 Barrett Johnson 10 Mt Paran Christian (GA) 9 24:25.7 89.6 81
706 Daniel Brothers 9 Pope (GA) 28 24:25.8 89.6 87
707 Garrett Blackstock 10 Newnan (GA) 12 24:29.9 89.3 93
708 David Bransky 10 Starr's Mill (GA) 29 24:30.7 89.3 88
709 Joseph Hoffman 12 Hebron Christian Academy (GA) 10 24:31.4 89.2 94
710 Josh Kim 9 Peachtree Ridge (GA) 31 24:34.3 89.1 89
711 Chase English 11 Mt De Sales (GA) 8 24:35.6 89.0 82
712 Ali Zaidi 11 Peachtree Ridge (GA) 32 24:38.4 88.8 90
713 Benjamin Keller 11 Starr's Mill (GA) 30 24:38.7 88.8 91
714 Sean Johnson 12 Mt Paran Christian (GA) 10 24:44.7 88.4 83
715 Emmanuel Hernandez 12 Carrollton (GA) 20 24:46.4 88.3 95
716 Tino Mendoza 9 Peachtree Ridge (GA) 33 24:46.9 88.3 92
717 John Adams 11 Starr's Mill (GA) 31 24:49.2 93
718 Mitch Talick 10 Hebron Christian Academy (GA) 11 24:55.6 87.8 96
719 Manny Domiguez 11 Pope (GA) 29 24:57.9 87.7 94
720 Billy McGahan 11 Westminster (GA) 35 24:57.9 95
721 Constantine Zhang 11 Holy Trinity Episcopal (FL) 27 24:59.3 87.6 96
722 Justin Peterson 12 Pope (GA) 30 25:03.1 87.4 97
723 Devan Suber 11 Westminster (GA) 36 25:03.3 87.4 98
724 Zach Johnson 9 St Pius X Catholic (GA) 39 25:04.3 87.3 99
725 Xavier Holliday 9 Westminster (GA) 37 25:06.6 87.2 100
726 Gustavo Ruiz 9 Lithia Springs (GA) 8 25:12.9 86.8 97
727 Connor Sparkman 10 Starr's Mill (GA) 32 25:14.5 86.7 101
728 Andrew Shackelford 11 Westminster (GA) 38 25:17.9 86.5 102
729 Henry Park 9 Providence Christian (TX) 9 25:18.6 86.5 84
730 William Rentz 8 Marietta (OH) 21 25:19.0 100.2 103
731 Donovan Wilson 8 Marietta (OH) 22 25:20.5 100.2 104
732 Eric White 12 South Paulding (GA) 15 25:20.7 86.4 114
733 Sam Hunt 9 Oconee County (GA) 21 25:21.4 86.3 98
734 Clayton Shell 9 Heard County (GA) 6 25:26.3 86.1 361 85
735 Peyton Byrne 10 Hebron Christian Academy (GA) 12 25:28.2 86.0 99
736 Jon Wright 9 Mt De Sales (GA) 9 25:29.9 85.9 86
737 McKay Mayfield 11 Starr's Mill (GA) 33 25:39.1 85.4 105
738 Michael Catoe 12 Oconee County (GA) 22 25:39.5 85.3 100
739 Alexander Reyna 10 Mt Paran Christian (GA) 11 25:40.8 85.3 101
740 Kiev Johnson 9 Peachtree Ridge (GA) 34 25:43.8 106
741 Ben Juhn 9 Pope (GA) 31 25:46.4 85.0 107
742 Matt Parker 11 Oconee County (GA) 23 25:47.4 84.9 102
743 Max Motley 10 Westminster (GA) 39 25:59.5 84.3 108
744 Andrew Henry 12 Temple (TX) 2 26:07.7 83.8 87
745 Parker Pennell 9 Oconee County (GA) 24 26:08.8 83.8 103
746 Nick Bowdler 9 Oconee County (GA) 25 26:11.2 83.6 104
747 Ethan Galloway 9 Pope (GA) 32 26:12.8 83.6 109
748 Bayron Moreno 11 Lithia Springs (GA) 9 26:12.9 83.5 115
749 Kylan Oliver 11 Lithia Springs (GA) 10 26:19.4 83.2 105
750 Zach Neal 11 The Lovett (GA) 30 26:20.9 83.1 110
751 Collin Taylor 11 LaGrange (GA) 5 26:23.7 362 116
752 Bain McCullough 10 Pope (GA) 33 26:29.2 82.7 111
753 Benjamin Julian 10 Oconee County (GA) 26 26:43.7 82.0 106
754 Eric Oleen 12 Holy Trinity Episcopal (FL) 28 26:45.3 81.9 112
755 Griffin Beard 11 Providence Christian (TX) 10 26:49.6 81.7 88
756 John Vannice 8 Marietta (OH) 23 27:00.8 94.0 113
757 Dylan Watkins 9 Mt Paran Christian (GA) 12 27:00.9 81.1 107
758 Hogan Floyd 9 Mt Paran Christian (GA) 13 27:01.8 81.1 108
759 Justice Davis 11 Shaw (GA) 6 27:05.8 80.9 363 252
760 Jonah Hill 10 South Paulding (GA) 16 27:09.2 80.7 117
761 Carl Lipford 11 Heard County (GA) 7 27:13.7 80.5 364 89
762 Jeremy Novak 9 Pope (GA) 34 27:14.7 80.4 114
763 Wills Porter 12 Prince Avenue Christian (GA) 6 27:32.5 79.6 365 90
764 Michael Tije 12 Lithia Springs (GA) 11 27:54.2 78.5 109
765 Maurice Swain 12 South Paulding (GA) 17 27:56.0 78.5 118
766 Parker Dorsey 11 Oconee County (GA) 27 28:03.6 78.1 110
767 Austin Fisher 7 Holy Trinity Episcopal (FL) 29 28:12.0 77.7 115
768 Chris Knight 10 Heard County (GA) 8 28:18.5 77.4 91
769 Jack Bass 9 Mt De Sales (GA) 10 28:23.7 77.2 116
770 Paul Jung 9 Peachtree Ridge (GA) 35 28:24.2 117
771 David Thomasson 10 Carrollton (GA) 21 28:28.6 77.0 111
772 Will Hermanson 11 Mt Paran Christian (GA) 14 28:28.9 77.0 112
773 Andrew Cain 10 Newnan (GA) 13 28:29.5 77.0 113
774 Ted Fei 10 Darlington (WI) 10 28:33.5 76.8 92
775 Charlie Clay 11 Mt Paran Christian (GA) 15 28:49.4 76.1 114
776 J.B. Richie 9 Temple (TX) 3 28:59.7 75.6 93
777 James Sprayberry 10 Heard County (GA) 9 29:06.5 75.3 94
778 Mitchell Kersey 9 South Paulding (GA) 18 29:17.2 74.9 119
779 Ibrahia Diallo 10 Lithia Springs (GA) 12 29:20.0 74.8 115
780 Prantham Merchant 9 Pope (GA) 35 29:21.9 74.7 118
781 Connor Bible 10 Oconee County (GA) 28 29:24.3 74.6 116
782 Sam Gross 9 South Paulding (GA) 19 29:31.4 74.3 120
783 Nicholas Zhang 11 Darlington (WI) 11 29:45.6 73.7 95
784 Thomas Gregory 9 Oconee County (GA) 29 30:25.2 72.1 117
785 Virgil Gong 9 Darlington (WI) 12 30:57.4 70.9 96
786 Jacob Niswonger 11 Mt Paran Christian (GA) 16 31:03.8 70.7 118
787 William Ostergard 9 Westminster (GA) 40 31:35.6 69.5 119
788 Isaiah Wilkins 10 Temple (TX) 4 31:43.3 69.2 97
789 Cole Zachenmayer 9 Carrollton (GA) 22 31:51.1 68.9 120
790 Alex Grimsley 10 Central (Carroll County) (GA) 10 32:07.3 68.3 119
791 Leonard Brown 10 Central (Carroll County) (GA) 11 32:22.3 67.8 120
792 Brian Kim 10 Darlington (WI) 13 32:55.2 66.7 98
793 Joseph Bostik 10 Holy Trinity Episcopal (FL) 30 34:11.4 64.3 121
794 Aj Vrieland 9 Hebron Christian Academy (GA) 13 34:30.1 63.7 121